Location: French River
(46.0362°N, 80.5373°W)
Time: 21:38:50
(UTC-04:00)

ISS - Visible Passes

Search period start: 11 September 2024 00:00
Search period end: 21 September 2024 00:00
Orbit: 415 x 425 km, 51.6° (Epoch: 11 September)

Date Brightness Start Highest point End Pass type
(mag) Time Alt. Az. Time Alt. Az. Time Alt. Az.
11 Sep -3.2 21:37:15 10° SW 21:39:48 48° SW 21:39:48 48° SW visible
12 Sep -3.5 20:50:01 10° SW 20:53:14 46° SE 20:54:53 24° E visible
12 Sep -1.0 22:26:52 10° W 22:27:52 18° W 22:27:52 18° W visible
13 Sep -2.8 20:02:55 10° SSW 20:05:52 29° SE 20:08:51 10° ENE visible
13 Sep -3.2 21:39:14 10° W 21:42:32 55° NNW 21:42:40 54° N visible
14 Sep -3.7 20:51:38 10° WSW 20:54:58 77° NNW 20:57:15 19° ENE visible
14 Sep -0.9 22:29:04 10° WNW 22:30:13 18° WNW 22:30:13 18° WNW visible
15 Sep -3.8 20:04:05 10° SW 20:07:25 72° SSE 20:10:47 10° ENE visible
15 Sep -2.4 21:41:18 10° W 21:44:25 35° NNW 21:44:37 35° N visible
16 Sep -2.7 20:53:28 10° W 20:56:41 42° NNW 20:58:54 18° NE visible
16 Sep -0.7 22:30:57 10° WNW 22:31:51 16° NW 22:31:51 16° NW visible
17 Sep -3.1 20:05:37 10° W 20:08:56 55° NNW 20:12:15 10° ENE visible
17 Sep -2.1 21:43:08 10° WNW 21:45:59 30° N 21:45:59 30° N visible
18 Sep -2.2 20:55:14 10° WNW 20:58:17 31° N 21:00:04 19° NE visible
18 Sep -0.5 22:32:26 10° WNW 22:33:00 14° NW 22:33:00 14° NW visible
19 Sep -2.4 20:07:15 10° W 20:10:22 35° NNW 20:13:31 10° ENE visible
19 Sep -2.0 21:44:37 10° WNW 21:46:58 29° NNW 21:46:58 29° NNW visible
20 Sep -2.3 20:56:43 10° WNW 20:59:44 30° N 21:00:54 24° NE visible
20 Sep -0.3 22:33:34 10° WNW 22:33:49 12° WNW 22:33:49 12° WNW visible
